This is the latest recevied weather packets stored in our database for station/object LU2DKV-10. If no packets are shown the sender has not sent any weather packets the latest 10 day(s).
| Time | Temp. | Humidity | Pressure | Rain* | Wind** | Luminosity | Snow |
|---|---|---|---|---|---|---|---|
| 1777614611 | 16.11° C | 94% | 1012 hPa | - | - | 0 W/m² | - |
| 1777612789 | 16.11° C | 93% | 1012 hPa | - | - | 0 W/m² | - |
| 1777610967 | 16.11° C | 92% | 1012 hPa | - | - | 0 W/m² | - |
| 1777609145 | 16.11° C | 91% | 1012 hPa | - | - | 0 W/m² | - |
| 1777607323 | 16.11° C | 89% | 1012 hPa | - | - | 0 W/m² | - |
| 1777605501 | 16.11° C | 87% | 1012 hPa | - | - | 0 W/m² | - |
| 1777603679 | 16.11° C | 83% | 1012 hPa | - | - | 0 W/m² | - |
| 1777601857 | 16.67° C | 79% | 1012 hPa | - | - | 0 W/m² | - |
| 1777600035 | 16.67° C | 80% | 1012 hPa | - | - | 0 W/m² | - |
| 1777598213 | 16.11° C | 70% | 1012 hPa | - | - | 0 W/m² | - |
| 1777596391 | 16.67° C | 71% | 1012 hPa | - | - | 0 W/m² | - |
| 1777596322 | 16.67° C | 71% | 1012 hPa | - | - | 0 W/m² | - |
| 1777594500 | 16.67° C | 72% | 1012 hPa | - | - | 0 W/m² | - |
| 1777592678 | 17.22° C | 71% | 1012 hPa | - | - | 0 W/m² | - |
| 1777590856 | 17.22° C | 72% | 1012 hPa | - | - | 0 W/m² | - |
| 1777589034 | 17.22° C | 74% | 1012 hPa | - | - | 0 W/m² | - |
| 1777587212 | 17.78° C | 69% | 1012 hPa | - | - | 0 W/m² | - |
| 1777585390 | 18.33° C | 62% | 1012 hPa | - | - | 0 W/m² | - |
| 1777583568 | 18.89° C | 55% | 1012 hPa | - | - | 0 W/m² | - |
| 1777581746 | 19.44° C | 49% | 1012 hPa | - | - | 0 W/m² | - |
| 1777579924 | 20° C | 50% | 1012 hPa | - | - | 0 W/m² | - |
| 1777578102 | 20° C | 52% | 1012 hPa | - | - | 0 W/m² | - |
| 1777576280 | 20.56° C | 51% | 1012 hPa | - | - | 0 W/m² | - |
| 1777574458 | 20.56° C | 48% | 1013 hPa | - | - | 0 W/m² | - |
| 1777572636 | 20.56° C | 43% | 1013 hPa | - | - | 0 W/m² | - |
* Rain since midnight (hover to see other rain measurements)
** Current wind speed in m/s (hover to see current wind gust speed)